Dewpoint
14 13 10 11 9 8 7 5 3 2 0 -2 -4 -4 -3 -2 -2 -2 -2 -2 -2 -1 -0 1 4 8 10 10 10 11 12 11 9 8 5 4 5 7 7 6 7 9 7
15 13 11 10 10 9 7 5 3 2 0 -1 -3 -2 -1 -0 1 1 2 2 2 2 1 1 2 5 7 10 11 10 10 11 11 10 9 7 5 6 6 7 7 6 6
15 13 12 11 11 10 7 5 4 2 0 -0 -0 0 2 3 4 5 5 6 6 6 6 4 3 3 4 6 10 11 11 11 11 11 10 12 9 7 8 8 8 7 7
14 13 12 12 11 10 6 5 3 2 2 0 1 2 3 5 6 6 7 7 8 8 9 9 8 7 5 4 5 8 10 10 10 11 10 11 11 11 10 9 9 9 8
14 13 13 12 11 8 5 4 3 2 1 2 2 4 5 6 6 7 8 9 9 9 8 8 8 9 9 9 7 4 6 9 10 11 12 12 12 12 11 10 9 8 9
13 13 13 12 10 6 6 5 3 2 1 3 4 5 6 7 8 9 9 9 8 7 7 7 7 7 8 9 9 9 9 9 10 11 12 12 11 11 11 11 11 11 8
13 13 13 11 7 6 6 5 3 2 3 6 7 7 8 8 9 8 7 7 6 6 6 6 6 5 6 8 9 10 10 10 11 11 11 12 12 11 11 11 10 12 12
12 12 11 9 7 6 4 2 5 6 7 8 8 8 9 8 7 6 6 5 5 4 3 3 2 2 2 2 4 7 8 8 8 7 7 9 10 11 11 11 10 9 9
12 10 9 8 6 4 4 6 8 8 7 7 7 7 8 7 6 5 5 4 2 1 0 -0 -0 -1 -1 0 2 2 2 2 2 4 8 8 7 9 10 10 10 11 11
11 8 7 7 5 5 7 9 8 8 8 8 7 7 7 6 5 4 3 2 1 0 -0 -0 -1 -1 -1 -1 0 1 1 1 2 6 8 8 8 8 7 9 10 10 10
10 8 7 6 6 7 9 8 8 8 8 8 7 8 6 5 3 2 2 0 -0 -1 -1 -1 -1 -1 -1 -1 -0 -0 -0 1 1 7 8 6 7 7 7 8 8 9 9
10 8 7 8 8 9 9 8 8 8 8 8 7 6 5 3 2 1 -0 -1 -1 -1 -2 -1 -2 -1 -1 -1 0 1 1 0 4 6 6 6 6 6 6 5 6 8 8
11 10 10 10 10 10 9 9 9 9 9 8 6 4 3 1 -0 -1 -2 -2 -2 -2 -2 -1 -1 -1 -1 -0 1 1 1 -0 1 5 2 5 5 6 6 5 6 4 5
11 12 12 11 11 10 9 9 9 9 7 5 3 2 1 -1 -2 -3 -3 -3 -3 -3 -2 -2 -1 -1 -0 0 1 1 0 -0 -1 1 -2 -4 -4 3 4 6 5 4 3
11 11 11 12 11 10 9 9 8 7 5 4 2 1 -0 -2 -3 -4 -6 -9 -11 -11 -10 -8 -4 -2 -1 0 1 1 -0 -0 -1 -2 -2 -2 -3 1 3 5 5 4 3
11 11 11 11 11 10 9 8 7 6 5 2 1 -1 -2 -4 -6 -9 -13 -18 -24 -22 -20 -15 -9 -2 0 2 1 1 0 0 0 -1 -1 -1 -1 -3 -3 -4 -3 2 2
11 10 11 11 11 10 9 7 6 4 1 -1 -2 -3 -5 -9 -13 -19 -24 -28 -29 -28 -26 -23 -12 -2 -0 2 1 2 1 1 -0 -0 -1 -1 -2 -3 -3 -4 -4 -6 -2
11 11 11 11 10 9 8 7 4 1 -1 -2 -4 -6 -12 -19 -24 -28 -29 -29 -28 -28 -29 -28 -20 -8 -1 2 1 2 1 0 -0 -1 -1 -2 -3 -4 -4 -7 -11 -15 -13
11 12 11 10 9 9 8 5 1 -0 -2 -3 -5 -9 -13 -21 -28 -30 -30 -29 -28 -29 -29 -28 -23 -9 -3 1 2 1 0 -1 -2 -3 -4 -4 -5 -7 -10 -13 -17 -17 -16
11 11 10 9 9 8 6 2 0 -1 -3 -4 -6 -8 -15 -23 -30 -31 -31 -29 -28 -29 -29 -28 -20 -12 -6 -2 -1 -1 -2 -3 -3 -5 -5 -7 -10 -12 -17 -19 -18 -17 -15
11 10 10 9 8 6 3 0 -0 -2 -4 -5 -5 -8 -12 -22 -30 -32 -31 -30 -29 -29 -29 -25 -19 -11 -5 -3 -3 -3 -3 -5 -6 -6 -8 -10 -13 -19 -20 -18 -19 -18 -16
10 10 11 9 7 4 0 -0 -2 -2 -4 -4 -5 -6 -9 -13 -24 -32 -32 -31 -30 -29 -29 -27 -23 -14 -7 -4 -3 -4 -5 -6 -7 -7 -8 -11 -19 -22 -21 -20 -19 -20 -19
9 10 10 8 5 1 0 0 -1 -2 -3 -4 -4 -5 -6 -8 -13 -24 -32 -33 -31 -30 -29 -28 -25 -13 -11 -5 -4 -3 -3 -3 -5 -7 -8 -14 -21 -23 -22 -20 -19 -19 -21
10 10 9 7 3 1 -0 -0 -1 -3 -5 -4 -3 -4 -4 -5 -6 -10 -23 -33 -33 -31 -29 -28 -27 -25 -19 -15 -12 -9 -7 -8 -9 -8 -12 -14 -20 -22 -22 -20 -20 -21 -22
10 10 9 5 1 0 -1 -1 -1 -1 -2 -2 -2 -2 -3 -3 -4 -4 -8 -23 -32 -33 -31 -29 -27 -27 -28 -28 -27 -26 -26 -25 -25 -19 -12 -10 -20 -20 -22 -20 -21 -21 -23
11 9 7 3 1 0 -0 -1 -0 -0 -0 -1 -1 -1 -2 -2 -3 -3 -4 -9 -24 -32 -33 -32 -30 -28 -26 -26 -27 -28 -27 -26 -25 -25 -15 -17 -15 -15 -21 -20 -19 -21 -24
Wind_Speed
16 16 15 14 12 11 9 8 8 9 10 10 11 12 13 14 14 14 14 14 13 13 13 13 13 13 13 13 13 13 12 13 13 14 14 14 14 14 13 13 12 13 12
18 16 15 14 12 10 8 7 7 7 9 10 10 11 12 13 14 14 13 13 12 12 11 11 10 9 9 9 10 11 11 11 10 11 11 11 12 12 12 11 11 11 11
17 16 14 12 10 8 7 8 9 9 8 10 11 11 11 11 11 11 11 11 10 10 9 8 8 7 6 6 6 6 7 7 8 8 8 10 10 10 10 10 9 9 9
17 16 14 11 9 8 8 8 8 8 10 9 9 10 10 9 9 9 8 7 8 8 7 6 6 5 5 5 4 3 3 4 5 6 6 8 8 8 8 8 7 7 7
17 17 14 12 10 9 9 9 9 9 9 9 8 8 8 7 6 6 6 6 6 6 6 6 6 5 5 4 4 4 5 4 4 5 7 9 8 8 6 5 5 5 5
19 16 14 13 11 10 11 10 9 9 8 8 7 7 6 7 6 6 6 7 7 7 6 6 6 6 6 5 5 5 5 5 4 5 6 5 7 6 4 4 4 3 2
19 17 16 14 13 12 10 10 9 8 8 7 6 6 5 5 8 9 7 6 6 4 6 6 7 7 8 7 7 6 4 4 3 3 3 2 4 6 6 4 1 3 2
21 19 17 15 12 10 8 7 8 8 8 8 6 6 6 9 8 8 6 6 5 7 7 7 7 8 8 9 8 7 6 6 6 7 8 9 7 3 6 6 7 4 1
19 18 17 14 12 10 9 8 9 8 7 6 5 4 6 7 6 6 6 5 6 7 8 8 8 8 8 8 9 8 8 8 8 11 13 12 9 9 7 8 10 10 6
18 17 15 13 12 11 11 9 8 6 4 3 3 4 5 5 4 4 4 5 6 7 7 8 8 7 7 7 7 7 7 7 9 12 15 13 15 13 9 10 7 7 14
17 15 14 13 12 11 10 9 6 3 3 3 6 7 4 4 4 3 5 6 5 5 6 7 7 8 7 7 7 7 7 11 12 16 16 13 16 15 13 12 10 8 5
17 16 15 14 12 12 10 7 3 2 2 4 6 5 4 4 5 5 5 4 4 5 6 7 8 8 7 8 8 9 13 13 16 18 18 15 16 15 13 12 5 3 3
17 15 14 13 13 12 8 4 3 3 4 6 6 4 5 5 4 3 3 3 4 6 6 7 7 7 7 8 9 11 13 15 16 17 15 14 16 16 15 13 13 8 3
16 15 13 13 13 11 8 4 4 6 7 7 6 5 4 3 3 3 4 5 4 6 6 6 6 7 7 8 9 10 11 13 14 14 13 11 11 14 13 14 14 15 13
16 14 13 12 12 10 7 7 7 8 7 6 6 4 3 3 3 5 5 5 5 6 6 7 7 6 5 6 7 7 8 9 10 12 12 12 12 12 12 13 16 16 19
18 16 14 13 12 10 9 9 10 10 6 6 4 3 3 3 4 5 5 6 7 7 6 5 6 5 6 7 6 6 6 6 7 8 9 10 11 9 8 5 5 11 13
19 17 16 13 13 12 11 11 11 10 8 5 3 3 3 4 5 5 6 6 7 7 6 5 5 6 5 8 7 7 6 5 5 6 7 7 7 8 8 8 8 8 9
22 20 17 17 15 13 13 13 12 11 8 6 4 4 4 4 5 6 6 6 7 8 7 5 6 7 8 10 8 8 6 5 4 4 4 5 6 8 10 9 10 10 8
23 20 20 18 16 16 17 16 14 11 9 7 6 5 4 4 5 5 6 6 8 8 7 7 6 6 9 12 11 9 8 6 4 1 3 5 7 8 9 11 11 10 10
23 19 20 19 19 19 20 18 16 13 11 8 7 5 4 4 5 5 5 6 7 7 6 6 6 9 9 11 12 11 8 5 2 1 4 6 8 10 9 9 9 10 9
25 23 24 23 24 24 24 21 18 15 13 10 8 7 6 4 4 4 4 5 6 7 6 7 6 7 11 12 11 10 7 5 4 4 4 6 8 8 9 8 8 9 11
29 27 26 27 26 25 22 19 17 17 15 12 10 8 7 6 4 3 3 4 5 4 4 5 4 7 9 13 11 7 4 4 6 6 6 6 6 7 8 9 9 10 11
34 31 30 30 29 26 23 22 21 19 17 15 12 10 7 6 5 4 2 3 3 3 4 3 4 6 7 11 9 7 3 4 4 8 6 5 5 6 7 8 9 10 11
36 32 31 32 31 29 26 25 23 19 18 15 12 10 9 6 5 4 3 2 2 2 3 3 5 7 8 10 11 14 15 14 5 3 7 6 6 7 7 8 9 10 10
34 35 34 34 34 32 29 27 24 21 18 17 14 12 9 7 6 4 2 3 3 2 2 3 4 5 6 8 9 8 8 8 7 6 4 5 7 8 8 7 8 9 11
40 38 38 38 36 34 32 29 27 24 23 21 18 15 12 10 7 4 2 2 3 4 4 4 4 4 4 4 5 6 7 6 6 5 4 5 5 6 9 7 7 9 13
Wind_Direction
155 153 147 139 132 125 123 119 112 108 106 106 103 101 103 102 99 96 92 89 86 87 86 85 86 89 89 85 78 76 77 79 79 79 76 81 85 85 84 84 84 83 87
155 154 150 142 139 134 132 121 114 106 102 102 100 101 101 100 100 98 94 90 86 80 74 74 85 92 89 87 80 75 72 74 74 74 76 77 81 83 82 81 83 83 83
155 153 150 145 141 135 121 119 116 110 106 105 107 107 104 100 97 96 96 97 95 86 79 79 80 83 82 87 91 91 84 71 68 74 73 73 79 82 81 76 79 86 89
155 152 152 147 141 134 128 121 115 112 107 105 102 102 101 95 92 90 87 82 77 82 78 71 71 73 76 69 74 88 85 87 80 79 75 70 79 81 82 87 84 86 87
153 154 152 148 149 143 132 127 121 113 109 110 110 105 101 96 91 86 76 74 80 83 75 60 54 53 57 63 71 82 96 96 82 82 79 85 70 71 62 70 79 83 88
152 153 150 154 154 146 140 134 128 121 120 114 112 110 108 107 95 84 77 79 79 79 77 68 58 55 55 59 64 66 79 94 96 99 109 70 52 41 37 57 66 83 89
151 154 154 155 155 155 144 135 134 121 110 109 107 105 108 116 112 96 79 74 71 80 70 64 58 58 64 68 74 80 81 83 93 79 67 55 49 37 42 16 325 103 108
157 160 154 153 153 143 135 136 118 114 113 106 100 102 106 98 92 89 73 69 68 78 71 64 62 63 65 73 79 83 84 78 73 78 79 73 73 62 39 0 15 8 42
163 162 157 153 145 142 139 133 123 119 109 102 97 105 109 96 80 65 55 61 66 73 71 71 66 64 67 70 74 76 72 63 59 63 60 60 66 82 86 68 66 63 66
164 164 160 155 150 150 147 135 130 124 110 88 104 128 111 93 82 75 68 70 74 69 66 67 67 68 67 67 65 60 56 60 63 64 62 58 56 57 81 88 100 96 97
170 169 166 159 157 157 153 148 147 138 120 105 123 128 116 105 91 81 79 76 64 55 57 64 68 67 62 62 63 55 53 67 71 73 72 57 65 59 53 89 93 118 135
174 172 165 165 166 166 165 159 154 171 156 143 137 131 127 107 100 87 78 73 72 65 60 59 60 67 68 72 71 69 69 73 78 76 78 72 72 62 47 44 67 133 133
179 173 170 172 173 174 172 174 179 187 159 146 137 133 116 107 91 81 73 66 62 68 63 63 69 75 78 83 82 77 78 76 80 81 88 85 75 70 52 44 47 26 350
183 179 181 181 179 183 179 193 186 171 160 153 138 128 105 93 91 74 61 62 67 73 78 85 86 82 83 84 84 81 78 78 72 83 84 65 62 65 62 63 38 36 22
188 190 194 187 182 187 186 188 175 164 151 143 132 121 102 61 56 59 50 62 76 82 86 92 102 109 104 105 102 84 77 67 62 72 72 54 61 75 79 71 55 37 44
192 195 196 191 189 189 182 183 175 156 142 138 117 104 78 63 51 55 70 82 87 86 86 93 110 127 138 132 126 114 92 90 78 70 64 57 42 45 41 36 2 36 33
197 203 205 205 187 187 180 182 175 150 144 139 136 98 75 70 77 85 86 90 95 94 91 101 127 141 149 152 146 141 128 113 97 85 71 61 47 22 16 6 353 354 6
203 208 210 194 189 187 182 179 168 155 156 150 132 100 97 98 95 97 102 98 86 75 79 101 131 157 168 168 162 152 148 142 126 98 62 39 24 14 2 354 350 351 356
209 214 202 194 194 188 181 176 168 166 162 152 134 127 120 100 102 105 105 90 75 65 66 87 125 161 167 166 163 159 159 158 152 96 17 5 356 351 343 343 346 353 0
214 215 203 199 193 189 181 177 174 170 166 159 144 137 123 108 109 101 84 75 75 64 63 89 121 140 159 163 160 160 162 174 192 306 337 345 346 342 342 347 349 353 356
214 213 208 202 193 190 184 180 178 177 170 166 158 150 138 122 109 109 104 86 71 66 68 92 114 142 159 165 167 167 177 197 236 284 320 335 336 336 342 344 349 350 347
215 212 209 204 196 192 190 185 184 178 176 175 167 160 145 130 124 123 106 92 79 68 80 104 129 165 173 173 183 183 191 252 256 273 298 317 328 332 333 335 344 346 347
213 210 207 203 199 194 190 188 187 187 189 182 174 166 159 145 139 126 129 117 116 111 103 129 179 187 194 199 207 215 225 226 232 261 273 291 316 322 324 329 336 343 344
211 208 206 202 200 196 195 196 198 196 192 183 178 176 172 161 146 153 166 160 142 131 140 167 185 204 220 234 242 243 247 253 225 223 255 274 305 316 318 323 333 341 346
211 212 205 202 202 200 200 201 200 200 197 194 191 188 184 181 183 172 161 179 191 203 222 197 191 201 220 230 238 248 250 250 248 238 250 250 289 297 305 316 329 340 343
210 207 206 203 204 204 204 204 203 201 202 201 201 199 196 198 203 197 211 225 213 220 235 236 237 240 242 247 255 253 249 250 251 245 225 234 228 273 292 303 321 330 336
Height
1577 1578 1580 1580 1581 1582 1583 1582 1582 1582 1582 1582 1581 1581 1582 1582 1581 1581 1581 1581 1580 1580 1580 1580 1580 1581 1581 1581 1581 1581 1580 1579 1579 1578 1578 1577 1577 1577 1576 1576 1576 1575 1575
1576 1579 1581 1582 1583 1584 1584 1584 1583 1584 1584 1584 1584 1584 1583 1583 1583 1583 1583 1582 1582 1582 1581 1581 1581 1582 1582 1582 1582 1582 1581 1581 1581 1580 1580 1580 1579 1578 1578 1578 1578 1577 1577
1578 1580 1582 1583 1585 1585 1586 1585 1585 1585 1585 1585 1585 1584 1585 1585 1585 1584 1584 1583 1583 1583 1582 1582 1583 1583 1583 1583 1583 1583 1582 1582 1582 1582 1581 1581 1581 1580 1580 1579 1579 1578 1578
1578 1581 1582 1584 1585 1586 1586 1586 1587 1586 1586 1586 1586 1586 1586 1586 1585 1585 1585 1584 1584 1584 1583 1583 1583 1584 1583 1583 1583 1583 1582 1583 1583 1582 1582 1582 1582 1582 1582 1581 1581 1580 1580
1579 1580 1582 1584 1585 1586 1587 1587 1587 1586 1588 1588 1587 1588 1587 1587 1587 1586 1586 1586 1585 1585 1584 1584 1584 1584 1583 1583 1583 1583 1583 1583 1583 1583 1584 1584 1584 1584 1582 1582 1581 1581 1580
1579 1581 1582 1583 1585 1586 1587 1587 1587 1587 1587 1588 1588 1588 1588 1587 1587 1587 1587 1587 1587 1586 1585 1585 1584 1584 1583 1583 1583 1584 1584 1584 1584 1584 1584 1585 1584 1583 1583 1582 1582 1581 1580
1580 1582 1582 1584 1585 1586 1587 1587 1587 1587 1588 1589 1589 1589 1589 1589 1587 1588 1587 1588 1587 1588 1586 1586 1585 1585 1584 1585 1585 1584 1584 1585 1585 1585 1585 1585 1585 1585 1584 1583 1582 1582 1581
1579 1580 1581 1582 1585 1586 1588 1589 1588 1589 1589 1589 1589 1590 1589 1589 1589 1589 1588 1588 1588 1588 1588 1587 1586 1586 1586 1586 1586 1586 1585 1586 1585 1585 1585 1585 1585 1586 1585 1583 1582 1582 1581
1579 1580 1582 1583 1585 1586 1588 1589 1589 1590 1591 1590 1590 1590 1590 1590 1590 1590 1589 1589 1589 1589 1589 1588 1588 1587 1586 1587 1587 1587 1587 1587 1587 1587 1587 1586 1585 1585 1584 1585 1584 1582 1581
1579 1581 1583 1584 1585 1586 1588 1589 1590 1591 1591 1591 1590 1590 1591 1591 1591 1590 1590 1589 1589 1589 1589 1588 1588 1587 1587 1587 1587 1588 1588 1588 1588 1588 1589 1588 1587 1585 1584 1585 1583 1581 1579
1580 1582 1583 1584 1586 1587 1588 1589 1590 1590 1591 1591 1590 1590 1591 1591 1591 1591 1590 1591 1590 1590 1590 1589 1589 1588 1588 1588 1588 1588 1589 1589 1589 1590 1591 1591 1589 1587 1586 1585 1584 1582 1581
1580 1580 1583 1584 1585 1587 1588 1589 1590 1591 1591 1591 1591 1591 1591 1591 1591 1592 1591 1590 1590 1590 1590 1589 1589 1590 1590 1589 1589 1590 1589 1590 1590 1592 1592 1592 1591 1590 1588 1586 1585 1583 1582
1579 1581 1582 1584 1585 1587 1588 1589 1589 1590 1591 1591 1592 1592 1591 1591 1591 1591 1591 1591 1590 1589 1590 1590 1589 1589 1590 1590 1590 1591 1591 1591 1592 1593 1594 1593 1592 1592 1590 1588 1586 1583 1582
1579 1581 1583 1583 1584 1586 1587 1588 1588 1589 1590 1590 1591 1592 1592 1591 1590 1590 1590 1589 1589 1589 1589 1589 1589 1589 1590 1590 1591 1591 1592 1593 1593 1594 1595 1595 1594 1593 1591 1590 1587 1585 1582
1578 1580 1582 1583 1584 1585 1587 1587 1588 1588 1589 1590 1591 1592 1592 1592 1591 1590 1589 1589 1589 1589 1589 1589 1589 1588 1590 1591 1591 1592 1592 1593 1594 1595 1595 1595 1594 1594 1593 1592 1590 1587 1584
1577 1579 1582 1583 1584 1585 1586 1587 1587 1587 1589 1591 1592 1592 1592 1591 1591 1590 1589 1589 1589 1590 1590 1589 1589 1589 1590 1591 1593 1593 1593 1594 1595 1596 1596 1596 1595 1594 1593 1592 1590 1588 1586
1576 1578 1580 1582 1583 1583 1585 1586 1587 1587 1588 1590 1592 1592 1592 1592 1591 1591 1590 1589 1589 1589 1590 1590 1590 1590 1591 1592 1593 1594 1595 1596 1596 1596 1596 1596 1596 1595 1593 1592 1589 1587 1585
1573 1575 1576 1578 1580 1582 1583 1584 1587 1588 1589 1589 1591 1592 1592 1591 1591 1590 1589 1589 1589 1589 1590 1590 1590 1590 1591 1592 1593 1594 1595 1596 1597 1598 1597 1596 1594 1594 1592 1591 1588 1586 1584
1569 1572 1573 1576 1577 1579 1581 1583 1585 1587 1588 1589 1590 1590 1591 1591 1590 1590 1589 1587 1587 1588 1588 1589 1589 1590 1591 1593 1593 1594 1595 1596 1597 1597 1597 1596 1594 1593 1592 1590 1588 1586 1584
1566 1569 1572 1573 1576 1578 1580 1582 1584 1585 1586 1588 1588 1590 1590 1590 1589 1589 1589 1588 1587 1587 1588 1589 1589 1590 1591 1592 1593 1595 1596 1596 1597 1596 1595 1595 1594 1592 1591 1590 1588 1586 1584
1562 1566 1568 1570 1571 1574 1576 1578 1581 1584 1585 1586 1587 1588 1589 1589 1589 1588 1587 1588 1587 1586 1587 1588 1589 1590 1591 1592 1593 1594 1594 1594 1594 1594 1594 1593 1592 1591 1590 1589 1588 1586 1585
1554 1559 1564 1567 1568 1572 1575 1578 1580 1581 1583 1585 1586 1587 1587 1587 1588 1588 1587 1587 1587 1587 1587 1587 1588 1589 1590 1592 1594 1595 1596 1596 1593 1592 1592 1591 1591 1590 1589 1588 1586 1585 1584
1549 1552 1558 1563 1566 1569 1572 1574 1577 1579 1582 1583 1584 1585 1587 1587 1587 1587 1588 1587 1587 1587 1587 1588 1589 1590 1590 1591 1593 1595 1595 1594 1592 1591 1590 1589 1588 1588 1588 1587 1586 1584 1582
1544 1549 1554 1559 1563 1566 1568 1571 1574 1577 1579 1581 1582 1583 1584 1586 1586 1587 1587 1586 1586 1586 1586 1587 1587 1588 1589 1590 1590 1589 1590 1591 1591 1591 1590 1589 1588 1587 1586 1585 1584 1583 1581
1542 1546 1550 1554 1559 1561 1563 1567 1571 1575 1577 1578 1579 1581 1583 1584 1585 1586 1586 1586 1585 1585 1586 1587 1586 1587 1587 1587 1588 1589 1589 1589 1589 1592 1592 1590 1588 1587 1586 1584 1583 1582 1580
1535 1538 1542 1547 1551 1556 1559 1562 1566 1570 1573 1574 1576 1578 1580 1581 1583 1583 1584 1585 1584 1585 1586 1584 1584 1585 1586 1587 1587 1586 1586 1586 1587 1587 1587 1586 1587 1585 1585 1584 1583 1581 1579